This is the latest recevied weather packets stored in our database for station/object N8SHA. If no packets are shown the sender has not sent any weather packets the latest 10 day(s).
| Time | Temp. | Humidity | Pressure | Rain* | Wind** | Luminosity | Snow |
|---|---|---|---|---|---|---|---|
| 1777841112 | 17.78° C | 41% | 1008.8 hPa | 0 mm | - | 297 W/m² | - |
| 1777840809 | 18.33° C | 40% | 1008.5 hPa | 0 mm | - | 265 W/m² | - |
| 1777840506 | 17.78° C | 39% | 1008.8 hPa | 0 mm | - | 220 W/m² | - |
| 1777840203 | 17.22° C | 40% | 1008.9 hPa | 0 mm | - | 672 W/m² | - |
| 1777839901 | 17.22° C | 41% | 1009 hPa | 0 mm | - | 215 W/m² | - |
| 1777839599 | 18.89° C | 38% | 1008.8 hPa | 0 mm | - | 223 W/m² | - |
| 1777839296 | 18.33° C | 38% | 1008.9 hPa | 0 mm | - | 678 W/m² | - |
| 1777838993 | 18.33° C | 41% | 1008.9 hPa | 0 mm | - | 722 W/m² | - |
| 1777838690 | 18.33° C | 40% | 1009 hPa | 0 mm | - | 697 W/m² | - |
| 1777838386 | 17.78° C | 40% | 1009.1 hPa | 0 mm | - | 629 W/m² | - |
| 1777838084 | 17.78° C | 38% | 1009.1 hPa | 0 mm | - | 248 W/m² | - |
| 1777837780 | 17.78° C | 38% | 1009.3 hPa | 0 mm | - | 334 W/m² | - |
| 1777837477 | 18.33° C | 38% | 1009.2 hPa | 0 mm | - | 675 W/m² | - |
| 1777837172 | 18.33° C | 39% | 1009.1 hPa | 0 mm | - | 811 W/m² | - |
| 1777836868 | 17.78° C | 39% | 1009.2 hPa | 0 mm | - | 845 W/m² | - |
| 1777836564 | 17.78° C | 39% | 1009.5 hPa | 0 mm | - | 873 W/m² | - |
| 1777836261 | 16.67° C | 39% | 1009.6 hPa | 0 mm | - | 267 W/m² | - |
| 1777835956 | 17.78° C | 40% | 1009.5 hPa | 0 mm | - | 230 W/m² | - |
| 1777835654 | 18.33° C | 39% | 1009.4 hPa | 0 mm | - | 552 W/m² | - |
| 1777835350 | 17.22° C | 39% | 1009.6 hPa | 0 mm | - | 857 W/m² | - |
| 1777835048 | 17.78° C | 39% | 1009.7 hPa | 0 mm | - | 349 W/m² | - |
| 1777834744 | 16.67° C | 43% | 1009.6 hPa | 0 mm | - | 931 W/m² | - |
| 1777834441 | 16.67° C | 43% | 1009.7 hPa | 0 mm | - | 237 W/m² | - |
| 1777834140 | 16.67° C | 43% | 1010.2 hPa | 0 mm | - | 347 W/m² | - |
| 1777833836 | 17.22° C | 42% | 1010.1 hPa | 0 mm | - | 471 W/m² | - |
* Rain latest hour (hover to see other rain measurements)
** Current wind speed in m/s (hover to see current wind gust speed)